N960 KOKC-KDAL

Flight info

Callsign N960
Flight time N/A
Altitude 31000
Route KRMSN4 KRMSN AIRRE HIBIL3
Aircraft C25C/M-BGS/L

Departure

Time 2026-04-28 01:11
Airport OKC Will Rogers World Airport (KOKC)

Arrival

Time N/A
Airport Dallas Love Field (KDAL)
Time Latitude Longitude Altitude Speed Heading
2026-04-28 00:56 35.39598 -97.58522 1283 ft 0 kts 108°
2026-04-28 01:05 35.39599 -97.58545 1287 ft 13 kts 320°
2026-04-28 01:05 35.39701 -97.58627 1284 ft 17 kts 312°
2026-04-28 01:05 35.39676 -97.58728 1287 ft 15 kts 179°
2026-04-28 01:05 35.39575 -97.58728 1286 ft 14 kts 180°
2026-04-28 01:06 35.39469 -97.58728 1289 ft 16 kts 180°
2026-04-28 01:06 35.39349 -97.58727 1287 ft 18 kts 179°
2026-04-28 01:06 35.39220 -97.58726 1290 ft 19 kts 180°
2026-04-28 01:06 35.39086 -97.58726 1291 ft 21 kts 180°
2026-04-28 01:07 35.38933 -97.58725 1291 ft 23 kts 179°
2026-04-28 01:07 35.38767 -97.58724 1292 ft 25 kts 179°
2026-04-28 01:07 35.38581 -97.58725 1287 ft 29 kts 181°
2026-04-28 01:07 35.38445 -97.58724 1288 ft 30 kts 176°
2026-04-28 01:08 35.38182 -97.58625 1283 ft 30 kts 179°
2026-04-28 01:08 35.37982 -97.58624 1283 ft 18 kts 181°
2026-04-28 01:08 35.37914 -97.58637 1284 ft 0 kts 205°
2026-04-28 01:08 35.37876 -97.58672 1286 ft 9 kts 223°
2026-04-28 01:09 35.37840 -97.58734 1288 ft 9 kts 251°
2026-04-28 01:09 35.37834 -97.58768 1285 ft 0 kts 265°
2026-04-28 01:09 35.37833 -97.58788 1285 ft 16 kts 266°
2026-04-28 01:10 35.37879 -97.58893 1286 ft 10 kts 358°
2026-04-28 01:10 35.37894 -97.58893 1286 ft 0 kts
2026-04-28 01:11 35.37986 -97.58892 1285 ft 52 kts
2026-04-28 01:11 35.38699 -97.58897 1372 ft 139 kts 360°
2026-04-28 01:11 35.39747 -97.58953 2109 ft 154 kts 360°
2026-04-28 01:12 35.40801 -97.58769 3103 ft 157 kts 16°
2026-04-28 01:12 35.41820 -97.58330 4160 ft 154 kts 18°
2026-04-28 01:12 35.42908 -97.57915 4814 ft 173 kts 14°
2026-04-28 01:12 35.44120 -97.57564 5132 ft 187 kts 10°
2026-04-28 01:13 35.45478 -97.57195 5135 ft 213 kts 11°
2026-04-28 01:13 35.48541 -97.56280 5375 ft 227 kts 13°
2026-04-28 01:13 35.50033 -97.55812 5576 ft 222 kts 11°
2026-04-28 01:14 35.51621 -97.55349 6029 ft 248 kts
2026-04-28 01:14 35.53258 -97.54852 7399 ft 232 kts 15°